DateTimeUTC,F1_A11,F1_S11,BsB_S11,BsG_S11,BsR_S11,BbsB_S11,BbsG_S11,BbsR_S11,BaB_A11,BaG_A11,BaR_A11,Tu_S11,T_S11,Uu_S11,U_S11,P_S11,T1_A11
2021-06-22T04:00:00Z,00000200,20000000,,,,,,,0000.87,-000.05,-000.21,17.8,24.8,01.7,01.1,0669.2,31.0
2021-06-22T04:01:00Z,00000200,20000000,,,,,,,-000.37,0000.54,0000.34,17.8,24.8,01.7,01.1,0669.2,31.0
2021-06-22T04:02:00Z,00000200,20000000,,,,,,,0000.18,0000.04,0000.16,17.8,24.8,01.7,01.1,0669.3,31.1
2021-06-22T04:03:00Z,00000200,60000000,,,,,,,0003.21,0003.09,0002.23,17.8,24.9,01.7,01.1,0669.3,31.1
2021-06-22T04:04:00Z,00000200,41000000,0001.36,0000.77,0000.51,0000.25,-000.06,-000.07,0003.74,0003.13,0002.66,18.2,24.8,01.7,01.1,0670.2,31.1
2021-06-22T04:05:00Z,00000200,01000000,0002.04,0000.80,0000.27,0000.62,0000.08,-000.12,0006.65,0006.24,0004.79,18.3,24.8,01.8,01.2,0670.3,31.1
2021-06-22T04:06:00Z,00000200,01000000,0001.14,0000.48,0000.61,0000.76,-000.03,0000.28,0002.85,0002.57,0002.17,18.4,24.8,01.8,01.2,0670.3,31.1
2021-06-22T04:07:00Z,00000200,01000000,0001.57,0000.61,0000.43,0000.80,0000.41,0000.08,0002.26,0002.59,0001.38,18.3,24.8,01.8,01.2,0670.2,31.1
2021-06-22T04:08:00Z,00000200,01000000,0001.86,0000.79,0000.14,0000.40,0000.26,0000.14,0002.49,0001.47,0001.76,18.3,24.8,01.8,01.2,0670.2,31.1
2021-06-22T04:09:00Z,00000200,01000000,0001.47,0000.63,0000.70,0000.25,0000.18,0000.40,0000.63,0000.47,0000.67,18.2,24.7,01.8,01.2,0670.2,31.1
2021-06-22T04:10:00Z,00000200,01000000,0001.00,0000.44,0000.32,0000.48,0000.16,0000.13,0000.56,0000.74,0000.73,18.2,24.7,01.9,01.2,0670.2,31.0
2021-06-22T04:11:00Z,00000200,01000000,0001.60,0000.89,0000.15,0000.67,0000.04,0000.37,0001.07,0001.19,0000.38,18.1,24.6,01.9,01.3,0670.2,31.0
2021-06-22T04:12:00Z,00000200,01000000,0001.13,0001.00,0000.17,0000.16,0000.04,0000.23,0000.79,0000.07,0000.57,18.0,24.6,01.9,01.2,0670.2,31.0
2021-06-22T04:13:00Z,00000200,00000000,0001.24,0000.79,0000.16,0000.28,0000.51,0000.10,0000.51,0000.37,0000.15,18.0,24.6,01.9,01.2,0670.2,31.0
2021-06-22T04:14:00Z,00000200,01000000,0001.49,0000.61,0000.22,0000.25,0000.36,0000.30,0001.25,0001.76,0001.02,18.0,24.5,01.8,01.2,0670.2,31.0
2021-06-22T04:15:00Z,00000200,00000000,0000.83,0000.61,-000.04,0000.50,0000.12,-000.13,0000.90,0001.32,0000.92,18.1,24.6,02.0,01.3,0670.2,31.0
2021-06-22T04:16:00Z,00000200,01000000,0001.58,0000.38,0000.67,0000.20,0000.01,0000.19,0002.57,0001.65,0001.11,18.1,24.6,02.0,01.3,0670.3,31.0
2021-06-22T04:17:00Z,00000200,00000000,0001.43,0000.52,0000.62,-000.06,0000.11,0000.19,0002.01,0002.24,0002.22,18.2,24.6,01.9,01.3,0670.3,31.1
2021-06-22T04:18:00Z,00000200,00000000,0001.65,0000.81,0000.66,0000.37,0000.34,0000.28,0003.91,0003.49,0002.76,18.3,24.7,02.0,01.3,0670.3,31.1
2021-06-22T04:19:00Z,00000200,00000000,0001.89,0000.55,0000.42,0000.84,0000.22,0000.22,0003.04,0002.75,0002.02,18.3,24.7,01.9,01.3,0670.3,31.1
2021-06-22T04:20:00Z,00000200,01000000,0001.74,0000.58,0000.46,0000.57,0000.19,0000.22,0005.20,0004.70,0003.46,18.3,24.7,01.8,01.2,0670.3,31.1
2021-06-22T04:21:00Z,00000200,00000000,0001.43,0000.51,0000.58,0000.23,0000.13,0000.28,0007.03,0006.55,0005.58,18.3,24.7,01.9,01.3,0670.2,31.1
2021-06-22T04:22:00Z,00000200,00000000,0001.31,0000.71,0000.53,0000.67,0000.30,0000.04,0006.43,0005.52,0004.17,18.3,24.7,01.9,01.3,0670.2,31.1
2021-06-22T04:23:00Z,00000200,00000000,0002.03,0000.63,0000.34,0000.52,0000.41,0000.04,0008.69,0008.30,0006.92,18.2,24.7,01.9,01.3,0670.3,31.0
2021-06-22T04:24:00Z,00000200,00000000,0001.31,0000.95,0000.53,0000.56,0000.39,-000.04,0006.95,0006.07,0004.50,18.1,24.6,01.9,01.3,0670.2,31.0
2021-06-22T04:25:00Z,00000200,00000000,0001.42,0000.75,0000.34,0000.74,0000.15,-000.01,0003.80,0003.67,0002.89,18.1,24.6,01.9,01.3,0670.2,31.0
2021-06-22T04:26:00Z,00000200,00000000,0000.76,0000.74,0000.62,0000.58,0000.59,0000.01,0003.42,0003.09,0002.02,18.0,24.5,02.1,01.4,0670.3,31.0
2021-06-22T04:27:00Z,00000200,01000000,0001.59,0000.69,0000.61,0000.76,0000.09,0000.03,0001.93,0001.52,0001.80,18.0,24.5,02.0,01.3,0670.3,31.0
2021-06-22T04:28:00Z,00000200,00000000,0001.06,0000.93,0000.42,0000.24,0000.45,0000.45,0001.46,0001.99,0001.23,17.9,24.5,02.0,01.3,0670.3,31.0
2021-06-22T04:29:00Z,00000200,00000000,0000.78,0000.76,0000.47,0000.41,0000.51,0000.54,0001.29,0000.82,0000.95,17.9,24.5,02.1,01.4,0670.3,31.0
2021-06-22T04:30:00Z,00000200,00000000,0000.99,0000.60,0000.15,0000.68,0000.17,0000.02,0000.94,0001.23,0000.58,18.0,24.5,02.0,01.3,0670.3,31.0
2021-06-22T04:31:00Z,00000200,00000000,0000.64,0000.44,0000.58,0000.36,0000.21,0000.12,0000.79,0000.75,0000.64,18.1,24.5,02.0,01.3,0670.3,31.0
2021-06-22T04:32:00Z,00000200,00000000,0001.42,0000.63,0000.46,0000.25,0000.07,0000.08,0000.60,0000.34,0000.73,18.1,24.5,02.1,01.4,0670.3,31.0
2021-06-22T04:33:00Z,00000200,00000000,0001.62,0000.59,0000.35,0000.41,0000.07,0000.39,0000.80,0000.81,0000.24,18.2,24.6,02.0,01.4,0670.3,31.1
2021-06-22T04:34:00Z,00000200,00000000,0001.66,0000.59,0000.55,-000.00,-000.06,0000.16,0000.75,0000.51,0000.37,18.3,24.6,02.0,01.3,0670.3,31.1
2021-06-22T04:35:00Z,00000200,00000000,0001.35,0000.33,0000.75,0000.16,0000.21,0000.10,0000.46,0000.35,0000.21,18.4,24.6,02.0,01.4,0670.3,31.1
2021-06-22T04:36:00Z,00000200,00000000,0001.27,0000.72,0000.47,0000.08,0000.29,-000.07,0000.53,0000.59,0000.67,18.4,24.7,02.0,01.3,0670.3,31.1
2021-06-22T04:37:00Z,00000200,01000000,0001.37,0000.86,0000.38,0000.25,0000.16,-000.08,0000.60,0000.51,0000.50,18.4,24.7,02.0,01.4,0670.3,31.1
2021-06-22T04:38:00Z,00000200,00000000,0001.60,0000.56,0000.37,0000.17,0000.25,0000.02,0000.33,0000.46,0000.17,18.3,24.7,01.9,01.3,0670.3,31.1
2021-06-22T04:39:00Z,00000200,00000000,0000.71,0000.44,0000.76,0000.58,0000.28,0000.27,0000.71,0000.39,0000.28,18.3,24.7,02.1,01.4,0670.3,31.1
2021-06-22T04:40:00Z,00000200,00000000,0001.08,0000.47,0000.28,0000.10,0000.06,-000.03,0000.57,0000.28,0000.29,18.2,24.6,02.0,01.3,0670.3,31.0
2021-06-22T04:41:00Z,00000200,00000000,0001.29,0000.63,0000.57,0000.22,0000.04,0000.15,0000.68,0000.90,0000.71,18.1,24.6,01.9,01.3,0670.3,31.0
2021-06-22T04:42:00Z,00000200,00000000,0001.09,0000.54,0000.21,0000.73,0000.14,0000.11,0000.29,0000.08,0000.57,18.1,24.6,02.0,01.3,0670.3,31.0
2021-06-22T04:43:00Z,00000200,00000000,0000.94,0000.32,0000.56,0000.66,0000.14,-000.02,0001.14,0000.99,0000.18,18.0,24.5,02.0,01.4,0670.3,31.0
2021-06-22T04:44:00Z,00000200,00000000,0001.05,0000.61,0000.73,0000.61,0000.09,0000.04,0000.10,0000.50,0000.45,18.1,24.5,02.0,01.4,0670.3,31.0
2021-06-22T04:45:00Z,00000200,01000000,0000.81,0000.58,0000.55,0000.55,0000.16,-000.06,0000.47,0000.40,0000.65,18.1,24.5,02.0,01.4,0670.4,31.0
2021-06-22T04:46:00Z,00000200,00000000,0001.25,0000.55,0000.43,-000.11,0000.15,-000.02,0000.83,0000.71,0000.25,18.2,24.5,02.0,01.3,0670.4,31.0
2021-06-22T04:47:00Z,00000200,00000000,0001.39,0000.72,0000.06,0000.42,0000.21,0000.27,0000.49,0000.98,0000.96,18.3,24.6,02.0,01.4,0670.4,31.0
2021-06-22T04:48:00Z,00000200,00000000,0001.22,0000.50,0000.49,0000.31,-000.06,-000.02,0001.07,0000.43,0000.04,18.3,24.6,02.0,01.3,0670.3,31.1
2021-06-22T04:49:00Z,00000200,00000000,0000.90,0000.63,0000.37,-000.04,0000.08,0000.18,0000.51,0000.84,0000.87,18.4,24.7,01.9,01.3,0670.4,31.1
2021-06-22T04:50:00Z,00000200,00000000,0000.46,0000.43,0000.49,0000.28,0000.13,0000.06,0000.63,0000.65,0000.64,18.4,24.7,02.0,01.3,0670.4,31.1
2021-06-22T04:51:00Z,00000200,00000000,0000.51,0000.54,0000.31,0000.06,0000.15,0000.18,0000.59,0000.14,0000.18,18.3,24.7,01.9,01.3,0670.3,31.1
2021-06-22T04:52:00Z,00000200,00000000,0001.05,0000.41,0000.66,0000.14,0000.20,0000.03,0001.07,0000.64,0000.64,18.3,24.6,02.0,01.3,0670.3,31.1
2021-06-22T04:53:00Z,00000200,00000000,0001.46,0000.29,0000.38,0000.38,0000.09,0000.04,0000.16,0000.59,0000.06,18.2,24.6,01.9,01.3,0670.3,31.0
2021-06-22T04:54:00Z,00000200,01000000,0001.04,0000.48,0000.60,0000.83,0000.11,0000.05,0000.76,0000.41,0000.36,18.2,24.6,01.9,01.2,0670.3,31.0
2021-06-22T04:55:00Z,00000200,00000000,0001.27,0000.57,0000.38,0000.64,-000.01,-000.01,0000.38,0000.49,0000.49,18.1,24.5,02.0,01.3,0670.3,31.0
2021-06-22T04:56:00Z,00000200,00000000,0000.41,0000.53,0000.57,0000.70,0000.20,0000.19,0000.77,0000.65,0000.23,18.0,24.5,02.0,01.4,0670.2,31.0
2021-06-22T04:57:00Z,00000200,40000000,,,,,,,0000.26,0000.27,0000.41,18.1,24.6,01.5,01.0,0670.1,31.0
2021-06-22T04:58:00Z,00000200,60000000,,,,,,,-000.09,-000.03,-000.01,17.7,24.6,01.9,01.2,0669.2,31.0
2021-06-22T04:59:00Z,00000200,20000000,,,,,,,0000.34,0000.11,0000.14,17.7,24.7,01.7,01.1,0669.2,31.0
